カタログに戻る

STARLINK-31369

運用中通信VLEO
NORAD 58975·PAYLOAD·🇺🇸 United States

打ち上げ Feb 15, 2024 から Vandenberg Space Force Base

Loading…

次のパス (今後24時間)

TLE

最新Source: CelesTrak SupGP

元期: Sep 15, 2026, 03:25 UTC

1 58975C 24031L   26258.14284722  .00042297  00000+0  12497-2 0  2583
2 58975  53.1557 134.4118 0001267  80.9713 207.6465 15.34368142    16

AllMySatでSTARLINK-31369をリアルタイム追跡

Download on the App Store